User: anonymous
Location: Caltech
(34.1382°N, 118.1253°W)
Time: 14:24:44
(UTC-07:00)
Language:

NOSS 3-2 (A) - Orbit

View from above orbital plane
View from above orbital plane
View from above satellite
View from above satellite

Ground track
Ground track

The orbit data is extracted from the following two-line orbital elements,

1 28095U 03054A   14092.82759671 0.00000000  00000-0  00000-0 0    00
2 28095  63.4290  60.5571 0204000 358.5280   1.4720 13.41278189    09
Epoch (UTC): 02 April 2014 19:51:44
Eccentricity: 0.0204000
inclination: 63.4290°
perigee height: 952 km
apogee height: 1257 km
right ascension of ascending node: 60.5571°
argument of perigee: 358.5280°
revolutions per day: 13.41278189
mean anomaly at epoch: 1.4720°
orbit number at epoch: 0

The dashed part of the orbit path shows where the satellite is in the earth's shadow,  

DLR